Cedar City, UT

11:27 AM MDT on April 30, 2017 (GMT -0600)
Cedar City Regional

Weather History for KCDC - February, 2013

Change the Weather History Date:

Tuesday, February 26, 2013

  Actual Average Record
Temperature  
Mean Temperature 28 °F 36 °F  
Max Temperature 34 °F 49 °F 67 °F (1986)
Min Temperature 22 °F 23 °F -14 °F (1971)
Degree Days  
Heating Degree Days 37 29  
Month to date heating degree days 899 828  
Since 1 July heating degree days 4547 4503  
Cooling Degree Days 0 0  
Month to date cooling degree days 0 0  
Year to date cooling degree days 0 0  
Moisture  
Dew Point 18 °F    
Average Humidity 67    
Maximum Humidity 92    
Minimum Humidity 41    
Precipitation  
Precipitation T in 0.05 in 0.52 in (2011)
Month to date precipitation 0.99 0.92  
Year to date precipitation 1.97 1.78  
Sea Level Pressure  
Sea Level Pressure 30.13 in    
Wind  
Wind Speed 9 mph (North)    
Max Wind Speed 24 mph    
Max Gust Speed 31 mph    
Visibility 9 miles    
Events Snow    
T = Trace of Precipitation, MM = Missing Value Source: NWS Daily Summary

Daily Weather History Graph

Daily Weather History Graph

Search for Another Location

Airport or City:

Trip Planner

Search our weather history database for the weather conditions in past years. The results will help you decide how hot, cold, wet, or windy it might be!

Date:

Astronomy

Feb. 26, 2013 Rise Set
Actual Time 7:07 AM MST 6:23 PM MST
Civil Twilight 6:41 AM MST 6:49 PM MST
Nautical Twilight 6:10 AM MST 7:20 PM MST
Astronomical Twilight 5:40 AM MST 7:50 PM MST
Moon 7:41 PM MST (2/26) 7:14 AM MST (2/26)
Length of Visible Light 12h 08m
Length of Day
11h 15m
Full, 99% of the Moon is Illuminated
Feb 26
Full
Mar 4
Last Quarter
Mar 11
New
Mar 19
First Quarter
Mar 27
Full

Hourly Weather History & Observations

Time (MST) Temp. Windchill Dew Point Humidity Pressure Visibility Wind Dir Wind Speed Gust Speed Precip Events Conditions
12:53 AM 24.1 °F - 18.0 °F 77% 30.08 in 10.0 mi Calm Calm - N/A   Mostly Cloudy
1:53 AM 25.0 °F - 19.9 °F 81% 30.06 in 10.0 mi Calm Calm - N/A   Overcast
2:53 AM 24.1 °F - 21.9 °F 91% 30.03 in 10.0 mi Calm Calm - N/A   Overcast
3:18 AM 24.8 °F - 21.2 °F 86% 30.02 in 10.0 mi Calm Calm - N/A   Overcast
3:24 AM 24.8 °F - 23.0 °F 93% 30.02 in 10.0 mi Calm Calm - N/A   Overcast
3:53 AM 26.1 °F - 23.0 °F 88% 30.02 in 7.0 mi Calm Calm - 0.00 in Snow Light Snow
4:53 AM 26.1 °F - 23.0 °F 88% 30.01 in 10.0 mi Calm Calm - 0.00 in   Overcast
5:53 AM 25.0 °F - 21.9 °F 88% 30.06 in 10.0 mi Calm Calm - N/A   Overcast
6:12 AM 24.8 °F - 21.2 °F 86% 30.02 in 10.0 mi Calm Calm - N/A   Overcast
6:53 AM 24.1 °F 17.0 °F 21.9 °F 91% 30.08 in 10.0 mi NNE 5.8 mph - N/A   Overcast
7:21 AM 23.0 °F 14.7 °F 21.2 °F 93% 30.05 in 10.0 mi North 6.9 mph - N/A   Overcast
7:29 AM 21.2 °F 10.9 °F 19.4 °F 93% 30.05 in 5.0 mi North 9.2 mph - 0.00 in Snow Light Snow
7:40 AM 23.0 °F 13.9 °F 19.4 °F 86% 30.06 in 2.0 mi North 8.1 mph - 0.00 in Snow Light Snow
7:53 AM 23.0 °F 13.9 °F 19.9 °F 88% 30.12 in 1.8 mi North 8.1 mph - 0.00 in Snow Light Snow
8:15 AM 23.0 °F 14.7 °F 21.2 °F 93% 30.07 in 1.5 mi NE 6.9 mph - 0.00 in Snow Light Snow
8:18 AM 23.0 °F 14.7 °F 21.2 °F 93% 30.08 in 3.0 mi NE 6.9 mph - 0.00 in Snow Light Snow
8:35 AM 23.0 °F 14.7 °F 19.4 °F 86% 30.08 in 10.0 mi NNE 6.9 mph - 0.00 in   Mostly Cloudy
8:53 AM 27.0 °F 19.5 °F 21.0 °F 78% 30.13 in 10.0 mi NNE 6.9 mph - 0.00 in   Partly Cloudy
9:46 AM 26.6 °F 18.2 °F 19.4 °F 74% 30.11 in 10.0 mi North 8.1 mph - N/A   Mostly Cloudy
9:53 AM 28.9 °F 21.1 °F 19.9 °F 69% 30.15 in 10.0 mi North 8.1 mph - N/A   Mostly Cloudy
10:04 AM 30.2 °F 20.2 °F 19.4 °F 64% 30.11 in 10.0 mi NNE 12.7 mph 18.4 mph N/A   Scattered Clouds
10:53 AM 30.9 °F 20.7 °F 17.1 °F 57% 30.17 in 10.0 mi NNE 13.8 mph 25.3 mph N/A   Scattered Clouds
11:53 AM 32.0 °F 20.5 °F 15.1 °F 50% 30.20 in 10.0 mi NNE 18.4 mph 28.8 mph N/A   Scattered Clouds
12:53 PM 33.1 °F 21.5 °F 14.0 °F 46% 30.18 in 10.0 mi North 19.6 mph 26.5 mph N/A   Mostly Cloudy
1:53 PM 34.0 °F 23.4 °F 15.1 °F 46% 30.16 in 10.0 mi North 17.3 mph 26.5 mph N/A   Clear
2:53 PM 34.0 °F 23.0 °F 12.9 °F 42% 30.17 in 10.0 mi North 18.4 mph 25.3 mph N/A   Clear
3:53 PM 33.1 °F 21.9 °F 14.0 °F 46% 30.17 in 10.0 mi North 18.4 mph 25.3 mph N/A   Clear
4:53 PM 33.1 °F 23.0 °F 16.0 °F 50% 30.18 in 10.0 mi North 15.0 mph 25.3 mph N/A   Overcast
5:53 PM 30.0 °F 18.7 °F 15.1 °F 54% 30.20 in 10.0 mi North 16.1 mph 23.0 mph N/A   Clear
6:53 PM 26.1 °F 17.6 °F 15.1 °F 63% 30.25 in 10.0 mi North 8.1 mph - N/A   Clear
7:53 PM 25.0 °F 18.1 °F 12.9 °F 60% 30.28 in 10.0 mi North 5.8 mph - N/A   Clear
8:53 PM 24.1 °F 17.0 °F 12.9 °F 62% 30.28 in 10.0 mi North 5.8 mph - N/A   Clear
9:53 PM 21.9 °F 13.4 °F 12.9 °F 68% 30.30 in 10.0 mi NNW 6.9 mph - N/A   Clear
10:53 PM 19.0 °F 10.0 °F 12.9 °F 77% 30.33 in 10.0 mi NNW 6.9 mph - N/A   Clear
11:53 PM 18.0 °F 12.7 °F 12.0 °F 78% 30.34 in 10.0 mi NNE 3.5 mph - N/A   Clear